This is the latest recevied weather packets stored in our database for station/object KN4MGS. If no packets are shown the sender has not sent any weather packets the latest 10 day(s).
| Time | Temp. | Humidity | Pressure | Rain* | Wind** | Luminosity | Snow |
|---|---|---|---|---|---|---|---|
| 1777822093 | 16.67° C | 49% | 1024.5 hPa | 0 mm | - | 757 W/m² | - |
| 1777821791 | 17.22° C | 47% | 1024.4 hPa | 0 mm | - | 718 W/m² | - |
| 1777821488 | 16.67° C | 47% | 1024.6 hPa | 0 mm | - | 737 W/m² | - |
| 1777821185 | 16.67° C | 49% | 1024.8 hPa | 0 mm | - | 773 W/m² | - |
| 1777820882 | 15.56° C | 50% | 1024.4 hPa | 0 mm | - | 723 W/m² | - |
| 1777820578 | 16.11° C | 48% | 1024.6 hPa | 0 mm | - | 771 W/m² | - |
| 1777820275 | 15.56° C | 49% | 1024.5 hPa | 0 mm | - | 746 W/m² | - |
| 1777819972 | 15.56° C | 49% | 1024.6 hPa | 0 mm | - | 751 W/m² | - |
| 1777819669 | 15.56° C | 51% | 1024.5 hPa | 0 mm | - | 733 W/m² | - |
| 1777819368 | 15.56° C | 48% | 1024.4 hPa | 0 mm | - | 687 W/m² | - |
| 1777819064 | 15° C | 51% | 1024.5 hPa | 0 mm | - | 722 W/m² | - |
| 1777818761 | 15° C | 51% | 1024.6 hPa | 0 mm | - | 698 W/m² | - |
| 1777818457 | 15.56° C | 50% | 1024.3 hPa | 0 mm | - | 698 W/m² | - |
| 1777818154 | 14.44° C | 49% | 1024.6 hPa | 0 mm | - | 656 W/m² | - |
| 1777817851 | 14.44° C | 51% | 1024.5 hPa | 0 mm | - | 679 W/m² | - |
| 1777817549 | 14.44° C | 50% | 1024.5 hPa | 0 mm | - | 655 W/m² | - |
| 1777817245 | 14.44° C | 51% | 1024.3 hPa | 0 mm | - | 655 W/m² | - |
| 1777816943 | 14.44° C | 52% | 1024.5 hPa | 0 mm | - | 591 W/m² | - |
| 1777816639 | 14.44° C | 54% | 1024.4 hPa | 0 mm | - | 590 W/m² | - |
| 1777816336 | 14.44° C | 55% | 1024.3 hPa | 0 mm | - | 560 W/m² | - |
| 1777816033 | 13.89° C | 58% | 1024.4 hPa | 0 mm | - | 546 W/m² | - |
| 1777815731 | 13.33° C | 65% | 1024.4 hPa | 0 mm | - | 542 W/m² | - |
| 1777815428 | 13.33° C | 66% | 1024.5 hPa | 0 mm | - | 498 W/m² | - |
| 1777815125 | 13.33° C | 65% | 1024.3 hPa | 0 mm | - | 436 W/m² | - |
| 1777814821 | 13.89° C | 65% | 1024.5 hPa | 0 mm | - | 369 W/m² | - |
* Rain latest hour (hover to see other rain measurements)
** Current wind speed in m/s (hover to see current wind gust speed)